Вернуться в каталог

LEMUR 2 KREMPEL-BRO2

АктивенНаукаSSO
NORAD 63353·PAYLOAD·🇺🇸 United States

Запущен Mar 26, 2025 с Rocket Lab Launch Complex 1

Loading…

Ближайшие Пролёты (ближайшие 24 часа)

TLE

СвежийSource: Space-Track

Эпоха: Sep 14, 2026, 04:02 UTC

1 63353U 25061C   26257.16826169  .00003082  00000-0  17018-3 0  9998
2 63353  97.5798 232.7236 0017722 314.0715  45.9057 15.14563220 81077

Отслеживайте LEMUR 2 KREMPEL-BRO2 в реальном времени с AllMySat

Download on the App Store